Tin City, AK

3:32 AM AKDT on March 24, 2017 (GMT -0800)
Tin City LRRS

Weather History for PATC - January, 2014

Change the Weather History Date:

Friday, January 3, 2014

  Actual Average Record
Temperature  
Mean Temperature 14 °F -  
Max Temperature 16 °F 8 °F 32 °F (2005)
Min Temperature 12 °F -1 °F -26 °F (2012)
Degree Days  
Heating Degree Days 51    
Moisture  
Dew Point 14 °F    
Average Humidity 96    
Maximum Humidity 100    
Minimum Humidity 93    
Precipitation  
Precipitation 0.00 in - - ()
Sea Level Pressure  
Sea Level Pressure 29.86 in    
Wind  
Wind Speed 23 mph (NNE)    
Max Wind Speed 56 mph    
Max Gust Speed 68 mph    
Visibility 4 miles    
Events Fog , Snow    
Averages and records for this station are not official NWS values.
T = Trace of Precipitation, MM = Missing Value Source: NWS Daily Summary

Daily Weather History Graph

Daily Weather History Graph

Search for Another Location

Airport or City:

Trip Planner

Search our weather history database for the weather conditions in past years. The results will help you decide how hot, cold, wet, or windy it might be!

Date:

Astronomy

Jan. 03, 2014 Rise Set
Actual Time 12:25 PM AKST 4:07 PM AKST
Civil Twilight 10:58 AM AKST 5:34 PM AKST
Nautical Twilight 9:45 AM AKST 6:47 PM AKST
Astronomical Twilight 8:42 AM AKST 7:50 PM AKST
Moon 12:14 PM AKST (1/3) 9:27 PM AKST (1/3)
Length of Visible Light 6h 36m
Length of Day
3h 42m
Waxing Crescent, 9% of the Moon is Illuminated
Jan 3
Waxing Crescent
Jan 7
First Quarter
Jan 15
Full
Jan 23
Last Quarter
Jan 30
New

Hourly Weather History & Observations

Time (AKST) Temp. Windchill Dew Point Humidity Pressure Visibility Wind Dir Wind Speed Gust Speed Precip Events Conditions
12:28 AM 12.2 °F -4.8 °F 12.2 °F 100% 29.75 in 5.0 mi NNE 17.3 mph - N/A Snow Light Snow Showers
12:48 AM 12.2 °F -5.8 °F 12.2 °F 100% 29.74 in 10.0 mi NNE 19.6 mph - N/A   Overcast
12:55 AM 12.7 °F -5.5 °F 11.5 °F 95% 29.73 in 10.0 mi NNE 20.7 mph - N/A Snow Light Snow Showers
1:28 AM 14.0 °F -4.3 °F 12.2 °F 93% 29.72 in 8.0 mi NNE 21.9 mph - N/A Snow Light Snow Showers
1:48 AM 14.0 °F -3.9 °F 12.2 °F 93% 29.72 in 1.8 mi NNE 20.7 mph - N/A Snow Light Snow Showers
1:55 AM 13.6 °F -4.8 °F 12.6 °F 95% 29.72 in 1.0 mi NNE 21.9 mph - N/A Snow Light Snow Showers
2:08 AM 14.0 °F -3.9 °F 14.0 °F 100% 29.72 in 0.5 mi NNE 20.7 mph - N/A Fog , Snow Light Snow Showers
2:48 AM 14.0 °F -3.0 °F 14.0 °F 100% 29.73 in 0.2 mi NNE 18.4 mph - N/A Fog , Snow Light Snow
2:55 AM 14.4 °F -3.0 °F 13.5 °F 96% 29.74 in 0.2 mi NNE 19.6 mph - N/A Fog , Snow Light Snow
3:08 AM 14.0 °F -3.0 °F 14.0 °F 100% 29.74 in 0.5 mi NE 18.4 mph - N/A Fog , Snow Light Snow
3:28 AM 14.0 °F -3.4 °F 14.0 °F 100% 29.74 in 0.8 mi NNE 19.6 mph - N/A Snow Light Snow
3:55 AM 14.9 °F -3.1 °F 14.0 °F 96% 29.73 in 0.8 mi NNE 21.9 mph - N/A Snow Light Snow
4:08 AM 15.8 °F -3.1 °F 14.0 °F 93% 29.72 in 0.2 mi NNE 25.3 mph - N/A Snow Light Snow
4:55 AM 16.0 °F -2.8 °F 14.9 °F 95% 29.73 in 0.2 mi NNE 25.3 mph - N/A Fog , Snow Light Snow
5:55 AM 15.8 °F -5.8 °F 14.9 °F 96% 29.74 in 0.5 mi NE 35.7 mph 39.1 mph N/A Fog , Snow Light Snow
6:08 AM 15.8 °F -5.2 °F 14.0 °F 93% 29.74 in 3.0 mi NE 33.4 mph 36.8 mph N/A Snow Light Snow
6:28 AM 15.8 °F -4.1 °F 14.0 °F 93% 29.75 in 8.0 mi NE 28.8 mph 34.5 mph N/A   Mostly Cloudy
6:55 AM 14.0 °F -5.1 °F 12.7 °F 95% 29.76 in 10.0 mi NNE 24.2 mph 32.2 mph N/A   Mostly Cloudy
7:48 AM 15.8 °F -3.4 °F 14.0 °F 93% 29.76 in 2.5 mi NNE 26.5 mph - N/A Snow Light Snow
7:58 AM 15.4 °F -4.2 °F 14.2 °F 95% 29.76 in 6.0 mi NNE 27.6 mph 35.7 mph N/A Snow Light Snow
8:05 AM 15.8 °F -2.7 °F 14.0 °F 93% 29.76 in 2.0 mi NNE 24.2 mph 34.5 mph N/A Snow Light Snow
8:30 AM 14.0 °F -7.1 °F 14.0 °F 100% 29.76 in 4.0 mi NNE 31.1 mph 52.9 mph N/A Snow Light Snow
8:55 AM 15.8 °F -3.4 °F 14.0 °F 93% 29.76 in 7.0 mi NNE 26.5 mph 34.5 mph N/A Snow Light Snow
9:11 AM 15.8 °F -3.1 °F 14.0 °F 93% 29.78 in 10.0 mi NNE 25.3 mph - N/A   Overcast
9:55 AM 15.8 °F -2.7 °F 14.0 °F 93% 29.79 in 10.0 mi NNE 24.2 mph - N/A Snow Light Snow Showers
10:55 AM 15.8 °F -3.4 °F 14.0 °F 93% 29.82 in 10.0 mi NE 26.5 mph - N/A Snow Light Snow
11:29 AM 15.8 °F -1.9 °F 14.0 °F 93% 29.82 in 9.0 mi North 21.9 mph 160.0 mph N/A Snow Light Snow Showers
11:55 AM 15.8 °F -3.7 °F 14.0 °F 93% 29.83 in 10.0 mi NNE 27.6 mph - N/A Snow Light Snow Showers
12:51 PM 15.8 °F -9.1 °F 14.0 °F 93% 29.85 in 5.0 mi NE 52.9 mph 63.3 mph N/A Snow Light Snow Showers
12:55 PM 15.1 °F -10.7 °F 14.2 °F 96% 29.85 in 5.0 mi NE 56.4 mph 67.9 mph N/A Snow Light Snow Showers
1:20 PM 15.8 °F 2.1 °F 14.0 °F 93% 29.86 in 2.5 mi North 12.7 mph 54.1 mph N/A Snow Light Snow Showers
1:45 PM 14.0 °F -0.8 °F 14.0 °F 100% 29.88 in 3.0 mi North 13.8 mph 26.5 mph N/A Snow Light Snow Showers
1:55 PM 14.9 °F -0.3 °F 13.8 °F 95% 29.88 in 2.5 mi North 15.0 mph 27.6 mph N/A Snow Light Snow Showers
2:30 PM 14.0 °F -5.1 °F 12.2 °F 93% 29.88 in 2.0 mi NNE 24.2 mph - N/A   Mostly Cloudy
2:55 PM 14.0 °F -5.5 °F 12.9 °F 95% 29.89 in 3.0 mi NNE 25.3 mph - N/A   Mostly Cloudy
3:35 PM 14.0 °F -5.5 °F 14.0 °F 100% 29.91 in 1.2 mi NNE 25.3 mph - N/A Snow Light Snow
3:55 PM 14.0 °F -5.1 °F 12.7 °F 95% 29.92 in 1.2 mi NNE 24.2 mph - N/A Snow Light Snow
4:20 PM 14.0 °F -5.5 °F 12.2 °F 93% 29.92 in 4.0 mi NNE 25.3 mph - N/A   Mostly Cloudy
4:45 PM 14.0 °F -3.9 °F 14.0 °F 100% 29.95 in 4.0 mi NNE 20.7 mph - N/A Snow Light Snow Showers
4:55 PM 14.4 °F -3.0 °F 13.5 °F 96% 29.96 in 4.0 mi NNE 19.6 mph - N/A Snow Light Snow Showers
5:10 PM 14.0 °F -3.0 °F 14.0 °F 100% 29.96 in 1.0 mi NNE 18.4 mph - N/A Snow Light Snow
5:35 PM 14.0 °F -4.7 °F 14.0 °F 100% 29.96 in 0.5 mi NNE 23.0 mph - N/A Fog , Snow Light Snow
5:55 PM 14.7 °F -2.9 °F 13.6 °F 95% 29.97 in 1.0 mi NNE 20.7 mph - N/A Snow Light Snow
6:20 PM 14.0 °F -3.9 °F 14.0 °F 100% 29.98 in 1.5 mi NNE 20.7 mph - N/A Snow Light Snow
6:45 PM 14.0 °F -6.2 °F 14.0 °F 100% 29.99 in 0.5 mi NNE 27.6 mph - N/A Fog , Snow Light Snow
6:55 PM 14.7 °F -5.2 °F 13.6 °F 95% 29.99 in 0.5 mi NNE 27.6 mph - N/A Fog , Snow Light Snow
7:30 PM 14.0 °F -6.5 °F 14.0 °F 100% 30.00 in 0.8 mi NNE 28.8 mph - N/A Snow Light Snow
7:55 PM 14.7 °F -9.2 °F 13.8 °F 96% 30.00 in 1.5 mi NNE 44.9 mph 49.5 mph N/A Snow Light Snow
8:15 PM 15.8 °F -4.4 °F 14.0 °F 93% 30.01 in 2.0 mi NNE 29.9 mph 46.0 mph N/A Snow Light Snow
8:40 PM 15.8 °F -4.4 °F 14.0 °F 93% 30.01 in 4.0 mi NNE 29.9 mph 50.6 mph N/A   Mostly Cloudy
8:55 PM 14.7 °F -5.8 °F 13.6 °F 95% 30.01 in 3.0 mi NNE 29.9 mph - N/A   Mostly Cloudy
9:55 PM 15.1 °F -4.7 °F 14.2 °F 96% 30.04 in 7.0 mi NNE 27.6 mph - N/A   Overcast
10:45 PM 15.8 °F -2.7 °F 14.0 °F 93% 30.06 in 4.0 mi NE 24.2 mph - N/A Snow Light Snow
10:55 PM 14.7 °F -4.1 °F 13.6 °F 95% 30.07 in 1.2 mi NE 24.2 mph - N/A Snow Light Snow Showers
11:10 PM 14.0 °F -3.0 °F 14.0 °F 100% 30.09 in 0.5 mi NE 18.4 mph - N/A Fog , Snow Light Snow Showers
11:35 PM 15.8 °F -1.9 °F 14.0 °F 93% 30.09 in 0.2 mi NE 21.9 mph - N/A Fog , Snow Light Snow Showers
11:55 PM 14.9 °F -3.5 °F 13.8 °F 95% 30.10 in 0.2 mi NE 23.0 mph - N/A Fog , Snow Light Snow Showers